Location: Cartignies
(50.0929°N, 3.8447°E)
Time: 14:01:21
(UTC+00:00)

Cosmos 2237 Rocket - Pass Details

Date: 12 January 2026
Orbit: 834 x 849 km, 71.0° (Epoch: 16 February)

Event Time Altitude Azimuth Distance (km) Brightness Sun altitude
Rises 17:46:37 0° 256° (WSW) 3,378 7.3 -15.4°
Reaches altitude 10° 17:49:39 10° 272° (W) 2,448 5.8 -15.8°
Maximum altitude 17:53:53 21° 322° (NW) 1,780 4.2 -16.5°
Drops below altitude 10° 17:58:09 10° 11° (N) 2,460 4.4 -17.2°
Enters shadow 17:59:17 - 18° (NNE) 2,787 4.6 -17.3°
